Home   Weather   Benghazi   Past weeks

Flag for Libya Past Weather in Benghazi, Libya — Yesterday and Last 2 Weeks

Now
54 °F

Passing clouds.


Feels Like: 54 °F
Forecast: 63 / 72 °F
Wind: No wind

Location: Souda Airport

Current Time: Feb 26, 2017 at 1:12:39 am

Latest Report: Feb 26, 2017 at 12:20 am


Visibility: N/A

Pressure: 30.15 "Hg

Humidity: 82%

Dew Point: 48 °F

Location of BenghaziLocation

Past Weather in Benghazi — Graph

°F

Benghazi Temperature Yesterday

Maximum temperature yesterday: 70 °F (at 3:50 pm)
Minimum temperature yesterday: 46 °F (at 4:20 am)
Average temperature yesterday: 58 °F

High & Low Weather Summary for the Past Weeks

 TemperatureHumidityPressure
High70 °F (Feb 25, 3:50 pm)100% (Feb 11, 12:50 am)30.45 "Hg (Feb 11, 12:50 am)
Low41 °F (Feb 14, 3:50 am)49% (Feb 25, 2:50 pm)29.89 "Hg (Feb 21, 3:50 pm)
Average51 °F80%30.20 "Hg
* Reported Feb 10 11:20 pm — Feb 25 11:50 pm, Benghazi, Weather by CustomWeather, © 2017

Note: Actual official high and low records may vary slightly from our data, if they occured in-between our weather recording intervals... More about our weather records

Advertising

Benghazi Weather History for the Previous 24 Hours

Scroll right to see more
 ConditionsComfort  
Time TempWeatherWind HumidityBarometerVisibility
11:50 pm
Sat, Feb 25
54 °FPassing clouds.No wind82%30.15 "HgN/A
11:20 pm55 °FPassing clouds.No wind77%30.15 "HgN/A
10:50 pm55 °FPassing clouds.No wind77%30.15 "HgN/A
10:20 pm55 °FPassing clouds.5 mph77%30.15 "HgN/A
9:50 pm57 °FPassing clouds.3 mph72%30.15 "HgN/A
9:20 pm57 °FPassing clouds.No wind67%30.15 "HgN/A
8:50 pm57 °FPassing clouds.No wind82%30.12 "HgN/A
8:20 pm57 °FPassing clouds.No wind88%30.12 "HgN/A
7:50 pm57 °FPassing clouds.No wind88%30.12 "HgN/A
7:20 pm57 °FPassing clouds.5 mph94%30.12 "HgN/A
6:50 pm59 °FPassing clouds.5 mph94%30.09 "HgN/A
6:20 pm61 °FPassing clouds.6 mph83%30.09 "HgN/A
5:50 pm63 °FPassing clouds.6 mph77%30.09 "HgN/A
5:20 pm68 °FPassing clouds.6 mph60%30.07 "HgN/A
4:50 pm70 °FPassing clouds.6 mph60%30.07 "HgN/A
4:20 pm70 °FScattered clouds.3 mph57%30.07 "HgN/A
3:50 pm70 °FScattered clouds.6 mph57%30.07 "HgN/A
3:20 pm68 °FScattered clouds.7 mph49%30.07 "HgN/A
2:50 pm68 °FScattered clouds.7 mph49%30.09 "HgN/A
2:20 pm68 °FScattered clouds.5 mph56%30.09 "HgN/A
1:50 pm68 °FScattered clouds.6 mph56%30.09 "HgN/A
1:20 pm68 °FScattered clouds.7 mph53%30.12 "HgN/A
12:50 pm68 °FScattered clouds.6 mph53%30.12 "HgN/A
12:20 pm66 °FScattered clouds.9 mph56%30.12 "HgN/A
11:50 am66 °FPassing clouds.7 mph56%30.12 "HgN/A
11:20 am63 °FPassing clouds.9 mph64%30.12 "HgN/A
10:50 am63 °FPassing clouds.7 mph64%30.12 "HgN/A
10:20 am63 °FScattered clouds.8 mph56%30.12 "HgN/A
9:50 am63 °FPassing clouds.8 mph56%30.12 "HgN/A
9:20 am61 °FScattered clouds.8 mph63%30.12 "HgN/A
8:50 am57 °FScattered clouds.9 mph67%30.12 "HgN/A
8:20 am54 °FScattered clouds.6 mph72%30.12 "HgN/A
7:50 am52 °FScattered clouds.6 mph72%30.12 "HgN/A
7:20 am50 °FPassing clouds.6 mph82%30.12 "HgN/A
6:50 am50 °FPassing clouds.7 mph82%30.12 "HgN/A
6:20 am50 °FPassing clouds.7 mph88%30.12 "HgN/A
5:50 am50 °FPassing clouds.7 mph88%30.12 "HgN/A
5:20 am50 °FPassing clouds.5 mph88%30.12 "HgN/A
4:50 am50 °FPassing clouds.5 mph88%30.12 "HgN/A
4:20 am46 °FPassing clouds.5 mph93%30.12 "HgN/A
3:20 am50 °FPassing clouds.No wind94%30.12 "HgN/A
2:50 am50 °FPassing clouds.No wind94%30.12 "HgN/A
2:20 am50 °FPassing clouds.No wind94%30.12 "HgN/A
1:50 am50 °FPassing clouds.No wind94%30.12 "HgN/A
1:20 am52 °FPassing clouds.No wind94%30.15 "HgN/A
Weather by CustomWeather, © 2017

See weather overviewHow to use our weather pages